[Iaude] MPEC V188: 2023 VL6 [a=1.12,e=0.10,i=9.3,H=26.4]

mpec at marsden.cfa.harvard.edu mpec at marsden.cfa.harvard.edu
Fri Nov 10 19:01:15 EST 2023


M.P.E.C. 2023-V188                            Issued 2023 November 10, 23:59 UT

     The Minor Planet Electronic Circulars contain information on unusual
         minor planets, routine data on comets and natural satellites,
         and occasional editorial announcements.  They are published
    on behalf of Division F of the International Astronomical Union by the
          Minor Planet Center, Smithsonian Astrophysical Observatory,
                          Cambridge, MA 02138, U.S.A.
			  
             Prepared using the Tamkin Foundation Computer Network

                              MPC at CFA.HARVARD.EDU
            URL https://www.minorplanetcenter.net/    ISSN 1523-6714

                                    2023 VL6                                    


Observations:
     K23V06L*1C2023 11 10.31061602 58 06.744-16 47 34.33         19.81GVEV188G96
     K23V06L 1C2023 11 10.32091502 58 02.521-16 44 30.34         19.57GVEV188G96
     K23V06L 1C2023 11 10.32606302 58 00.412-16 42 58.10         19.48GVEV188G96
     K23V06L mC2023 11 10.35526902 57 48.535-16 34 11.75         20.23GVEV188I52
     K23V06L mC2023 11 10.35552002 57 48.474-16 34 07.79         19.65GVEV188I52
     K23V06L mC2023 11 10.35577102 57 48.359-16 34 02.89         19.94GVEV188I52
     K23V06L mC2023 11 10.35602202 57 48.247-16 33 58.90         19.26GVEV188I52
     K23V06L KC2023 11 10.38423402 57 59.07 -16 18 41.5          19.3 GVEV188474
     K23V06L KC2023 11 10.38510502 57 36.670-16 25 10.80         19.87GVEV188I52
     K23V06L KC2023 11 10.38548802 57 58.61 -16 18 19.6          19.4 GVEV188474
     K23V06L KC2023 11 10.38586302 57 36.370-16 24 56.80         19.51GVEV188I52
     K23V06L KC2023 11 10.38611302 57 58.39 -16 18 08.3          19.5 GVEV188474
     K23V06L KC2023 11 10.38661902 57 36.060-16 24 43.40         19.99GVEV188I52
     K23V06L KC2023 11 10.38736502 57 57.92 -16 17 46.5          19.8 GVEV188474
     K23V06L KC2023 11 10.38738502 57 35.760-16 24 29.60         19.72GVEV188I52
     K23V06L KC2023 11 10.53840102 56 59.48 -15 32 20.4          19.6 GVEV188474
     K23V06L KC2023 11 10.53965302 56 58.92 -15 31 57.3          19.7 GVEV188474
     K23V06L KC2023 11 10.54027902 56 58.72 -15 31 45.9          19.6 GVEV188474
     K23V06L KC2023 11 10.54090502 56 58.49 -15 31 34.4          19.5 GVEV188474
     K23V06L KC2023 11 10.91056402 55 16.14 -13 43 27.4          19.6 GVEV188203
     K23V06L 1C2023 11 10.92151 02 55 10.77 -13 40 13.6          20.2 VXEV188033
     K23V06L 1C2023 11 10.92185 02 55 10.59 -13 40 06.6          20.3 VXEV188033
     K23V06L 1C2023 11 10.92219 02 55 10.49 -13 40 00.3          20.1 VXEV188033
     K23V06L 1C2023 11 10.92263 02 55 10.30 -13 39 52.1          20.6 VXEV188033
     K23V06L KC2023 11 10.93354902 55 06.91 -13 36 07.6          19.5 GVEV188203
     K23V06L KC2023 11 10.95719 02 54 56.80 -13 28 27.8          19.1 GVEV188104
     K23V06L KC2023 11 10.97132 02 54 51.05 -13 23 54.3          19.3 GVEV188104
     K23V06L KC2023 11 10.97829 02 54 48.21 -13 21 39.9                VEV188104

Observer details:
033 Karl Schwarzschild Observatory, Tautenburg.  Observers S. Melnikov, C.
    Hogner, F. Ludwig, M. Hartmann, B. Stecklum.  Measurer B. Stecklum.
    1.34-m f/3 Schmidt + CCD.
104 San Marcello Pistoiese.  Observers P. Bacci, M. Maestripieri.  Measurer P.
    Bacci.  0.60-m f/4.0 reflector + CCD.
203 GiaGa Observatory.  Observers S. Foglia, G. Galli.  Measurer G. Galli.
    0.36-m f/5.76 Schmidt-Cassegrain + CCD.
474 Mount John Observatory, Lake Tekapo.  Observers A. C. Gilmore, P. M.
    Kilmartin.  Measurer P. M. Kilmartin.  1.0-m f/7.7 reflector + CCD.
G96 Mt. Lemmon Survey.  Observer J. B. Fazekas.  Measurers E. C. Beshore, D.
    Fay, J. B. Fazekas, D. C. Fuls, A. R. Gibbs, A. D. Grauer, H. Groeller, J.
    K. Hogan, R. A. Kowalski, S. M. Larson, G. J. Leonard, D. Rankin, R. L.
    Seaman, F. C. Shelly, K. W. Wierzchos.  1.5-m reflector + 10K CCD.
I52 Steward Observatory, Mt. Lemmon Station.  Observer H. Groeller.  Measurers
    E. C. Beshore, D. Fay, J. B. Fazekas, D. C. Fuls, A. R. Gibbs, A. D.
    Grauer, H. Groeller, J. K. Hogan, R. A. Kowalski, S. M. Larson, G. J.
    Leonard, D. Rankin, R. L. Seaman, F. C. Shelly, K. W. Wierzchos.  1.0-m
    prime focus + CCD.

Orbital elements:
2023 VL6                                                 Earth MOID = 0.0214 AU
Epoch 2023 Sept. 13.0 TT = JDT 2460200.5                Veres                   
M 299.05205              (2000.0)            P               Q                  
n   0.83014857     Peri.   10.25570     +0.46605616     -0.87551936             
a   1.1212406      Node    52.08523     +0.79987160     +0.35534950             
e   0.0993633      Incl.    9.30085     +0.37814954     +0.32740279             
P   1.19           H   26.44          G   0.15           U   7                  
Residuals in seconds of arc
231110 G96  0.1+  0.0     231110 I52  0.1+  0.4+    231110 033  0.9+  0.3+
231110 G96  0.0   0.1-    231110 474  0.1+  0.1+    231110 033  0.3+  0.7+
231110 G96  0.1-  0.0     231110 I52  0.0   0.0     231110 033  0.8+  0.5+
231110 I52  0.3-  0.7+    231110 474  0.2-  0.3-    231110 033  0.5+  0.3+
231110 I52  0.3+  0.2+    231110 I52  0.0   0.2-    231110 203  0.1-  0.0
231110 I52  0.1+  0.5+    231110 474  0.2+  0.1+    231110 104  0.2-  0.7+
231110 I52  0.0   0.0     231110 474  0.7-  0.2+    231110 104  0.0   1.1+
231110 474  0.1+  0.1+    231110 474  0.0   0.1+    231110 104  0.1+  0.5+
231110 I52  0.2+  0.2+    231110 474  0.3+  0.0
231110 474  0.0   0.1-    231110 203  0.2-  0.4-

Ephemeris:
2023 VL6                 a,e,i = 1.12, 0.10, 9                   q = 1.0098
Date    TT    R. A. (2000) Decl.     Delta      r    Elong.  Phase     V
2023 10 11    03 51 19.5 -54 03 49   0.1026  1.0378   109.8    64.9    23.9
...
2023 10 26    03 41 43.1 -48 50 11   0.06365 1.0228   114.9    61.8    22.7
...
2023 11 03    03 25 20.0 -39 32 12   0.04293 1.0169   124.2    53.8    21.6
...
2023 11 09    03 04 10.3 -22 40 26   0.02938 1.0136   140.6    38.3    20.3
2023 11 10    02 59 37.6 -18 13 59   0.02757 1.0132   144.9    34.2    20.1
2023 11 11    02 54 44.4 -13 10 12   0.02596 1.0127   149.6    29.7    19.8
...
2023 11 17    02 17 12.4 +27 15 26   0.02292 1.0107   161.9    17.7    19.2
...
2023 11 25    01 01 25.3 +64 11 14   0.03613 1.0096   127.3    51.0    21.1
...
2023 12 10    22 05 48.5 +78 48 53   0.07442 1.0123   109.6    66.5    23.2

M. P. C. Staff               (C) Copyright 2023 MPC           M.P.E.C. 2023-V188




More information about the Iaude mailing list